Theta_e
285 285 285 285 285 285 285 285 284 284 284 284 284 283 283 283 283 284 284 284 284 284 284 284 285 285 285 286 286 286 286 287 287 287 287 287 287 287 287 287 288 288 288 288 288 288 288 288 288 288 289 289 289 289 289 289 290 290 290 290 290 291 291 291 292 292 292 292 292 292 293 293 293 293 293 293 294 294 294 294 294 294 294 294 295 295
284 285 285 285 285 285 284 284 284 284 284 283 283 283 283 283 284 284 284 284 284 284 284 285 285 285 286 286 286 286 286 286 286 286 286 286 286 287 287 287 287 288 288 288 288 288 288 288 288 288 288 289 289 289 289 289 289 290 290 290 290 291 291 291 291 291 291 291 291 291 292 292 292 292 292 292 292 293 293 293 293 293 293 294 294 294
284 284 284 284 284 284 284 284 284 284 284 284 283 284 284 284 284 284 284 284 284 284 285 285 285 286 286 286 286 285 285 285 285 285 286 286 286 287 287 287 287 287 287 287 287 287 288 288 288 288 288 288 289 289 289 289 289 290 290 290 290 290 290 290 290 290 291 291 291 291 291 291 291 291 291 291 292 292 292 292 292 292 292 293 293 293
284 284 284 284 284 284 284 284 284 284 284 284 284 284 284 284 284 284 284 284 284 285 285 286 286 286 286 285 285 284 284 284 285 285 286 286 286 286 286 286 287 287 287 287 287 287 287 288 288 288 288 288 289 289 289 289 289 289 290 290 290 290 290 290 290 290 290 290 290 290 290 290 291 291 291 291 291 291 291 291 292 292 292 292 292 292
284 284 284 284 284 284 284 284 284 284 284 284 284 284 284 284 284 284 284 284 285 285 286 286 286 286 285 285 284 284 284 284 285 285 285 285 286 286 286 286 286 286 286 287 287 287 287 287 288 288 288 288 288 289 289 289 289 289 289 289 289 289 289 289 289 289 289 290 290 290 290 290 290 290 290 290 290 291 291 291 291 291 291 292 292 292
284 284 284 284 284 284 284 284 284 284 284 284 284 284 284 284 284 284 285 285 285 286 286 286 285 285 284 284 284 284 284 284 284 285 285 285 285 285 285 286 286 286 286 286 287 287 287 287 288 288 288 288 288 288 289 289 289 289 289 289 289 289 289 289 289 289 289 289 289 289 289 289 289 290 290 290 290 290 290 291 291 291 291 292 292 292
284 284 284 284 284 284 285 285 285 285 284 284 284 284 284 284 285 285 285 286 286 286 286 285 285 284 284 284 284 284 284 284 284 284 284 284 284 285 285 285 285 286 286 286 287 287 287 287 287 288 288 288 288 288 288 288 288 288 288 288 288 288 288 288 288 288 288 289 289 289 289 289 289 289 289 289 290 290 290 290 291 291 291 291 291 292
285 285 285 285 285 285 285 285 285 285 285 284 284 284 284 285 285 285 286 286 286 286 285 284 284 284 284 284 284 284 283 283 283 283 284 284 284 284 285 285 285 286 286 286 286 287 287 287 287 287 288 288 288 288 288 288 288 288 288 288 288 288 288 288 288 288 288 288 288 288 288 289 289 289 289 289 290 290 290 290 291 291 291 291 291 292
285 285 285 285 286 286 286 285 285 285 284 284 284 284 285 285 285 286 286 286 285 285 284 284 284 284 284 284 283 283 283 283 283 283 284 284 284 284 284 285 285 285 286 286 286 286 287 287 287 287 287 287 287 287 287 287 287 287 287 287 287 287 287 287 287 287 288 288 288 288 288 288 289 289 289 289 290 290 290 290 291 291 291 291 292 292
285 286 286 286 286 286 285 285 284 284 284 284 284 285 285 286 286 286 285 285 284 284 284 284 284 283 283 283 283 283 283 283 283 284 284 284 284 284 285 285 285 285 285 286 286 286 286 286 286 286 286 286 286 286 286 286 286 286 286 286 287 287 287 287 287 287 287 287 288 288 288 288 289 289 289 289 290 290 290 291 291 291 292 292 292 292
286 286 286 286 286 285 285 284 284 284 284 284 285 285 286 286 286 285 284 284 284 283 283 283 283 283 283 283 283 283 283 283 283 283 284 284 284 284 284 285 285 285 285 285 286 286 286 286 286 286 286 286 286 286 286 286 286 286 286 286 286 286 286 286 287 287 287 288 288 288 289 289 289 289 290 290 290 290 290 290 291 291 291 291 292 292
286 286 286 285 285 284 284 284 284 284 284 285 285 286 286 286 285 284 284 283 283 283 283 283 283 283 283 283 283 283 283 283 284 284 284 284 284 284 284 284 285 285 285 285 285 285 285 285 285 285 285 285 285 285 285 285 285 285 285 285 286 286 286 286 287 287 288 288 288 289 289 289 289 289 290 290 290 290 290 290 290 290 291 291 291 291
286 286 285 284 284 284 284 284 284 284 285 285 286 286 285 284 284 283 283 283 283 283 283 283 283 283 283 283 283 283 284 284 284 284 284 284 284 284 285 285 285 285 285 284 284 284 284 284 284 284 284 284 284 284 284 284 284 284 285 285 285 286 286 287 287 287 288 288 288 289 289 289 289 289 289 290 290 290 290 290 290 290 290 291 291 291
285 285 285 284 284 284 284 284 284 285 285 285 285 285 284 284 283 283 283 283 283 283 283 283 283 283 283 284 284 284 284 284 284 284 284 285 285 285 285 285 285 284 284 284 284 284 283 283 283 283 283 283 283 283 283 283 284 284 285 285 286 286 287 287 287 288 288 288 288 289 289 289 289 289 289 290 290 290 290 290 290 290 290 290 291 291
285 285 285 285 285 285 284 284 284 285 285 285 284 284 284 283 283 283 283 283 283 283 283 283 283 283 284 284 284 284 284 284 285 285 285 285 285 285 285 284 284 284 284 284 283 283 283 283 283 283 283 283 283 283 283 283 284 285 285 286 286 286 287 287 287 287 288 288 288 288 289 289 289 289 289 289 290 290 290 290 290 290 290 290 290 290
286 286 285 285 285 285 284 284 284 285 285 284 284 284 283 283 283 283 283 283 283 283 283 283 284 284 284 284 285 285 285 285 285 285 285 285 285 285 284 284 284 283 283 283 283 283 283 283 283 283 283 283 283 283 283 284 284 285 285 286 286 286 286 287 287 287 287 288 288 288 289 289 289 289 289 289 289 290 290 290 290 290 290 290 290 290
286 286 286 285 285 285 284 284 284 284 284 284 284 283 283 283 283 283 283 283 283 283 283 284 284 284 284 285 285 285 285 285 285 285 285 284 284 284 284 283 283 283 283 283 283 283 282 282 282 282 282 283 283 283 284 284 285 285 285 286 286 286 286 286 287 287 287 288 288 288 288 289 289 289 289 289 289 289 289 289 289 289 290 290 290 290
286 286 285 285 285 284 284 284 284 284 284 284 284 283 283 283 283 283 283 283 283 284 284 284 284 284 285 285 285 285 285 285 285 284 284 284 284 283 283 283 283 282 282 282 282 282 282 282 282 282 282 283 283 283 284 284 284 285 285 285 286 286 286 286 287 287 287 287 288 288 288 288 289 289 289 289 289 289 289 289 289 289 289 290 290 290
286 285 285 285 284 284 284 284 284 284 284 284 283 283 283 283 283 283 283 283 284 284 284 284 284 285 285 285 285 285 285 284 284 284 283 283 283 283 283 282 282 282 282 282 282 282 282 282 282 282 282 283 283 283 284 284 284 285 285 285 286 286 286 286 287 287 287 287 287 288 288 288 288 288 288 289 289 289 289 289 289 289 290 290 290 291
285 285 285 285 284 285 284 284 284 284 284 284 284 283 283 283 283 283 283 284 284 284 284 284 285 285 285 285 285 285 284 284 283 283 283 283 282 282 282 282 282 282 282 282 282 282 282 282 282 282 282 282 283 283 283 284 284 285 285 285 286 286 286 286 286 287 287 287 287 287 287 288 288 288 288 289 289 289 289 289 289 289 290 290 290 290
285 285 285 285 285 285 284 284 284 284 284 283 283 283 283 283 284 284 284 284 284 285 285 285 285 285 285 285 284 284 283 283 282 282 282 282 282 282 282 282 282 282 282 282 282 282 282 282 282 282 282 282 282 283 283 284 284 285 285 285 285 286 286 286 286 286 287 287 287 287 287 287 288 288 288 288 289 289 289 289 289 289 289 289 289 289
285 285 285 285 285 284 284 284 284 283 283 283 283 283 283 284 284 284 284 285 285 285 285 285 285 284 284 283 283 283 283 282 282 282 282 282 282 282 282 282 282 282 282 282 282 282 282 282 282 282 282 282 283 283 283 284 284 284 285 285 285 285 286 286 286 286 286 286 287 287 287 287 287 288 288 288 288 288 288 288 288 289 289 289 289 289
285 285 285 285 284 284 284 284 283 283 283 283 283 284 284 284 284 285 285 285 285 285 284 284 283 283 283 283 282 282 282 282 282 281 281 281 281 282 282 282 282 282 282 282 282 282 282 282 282 282 282 282 282 283 283 284 284 284 285 285 285 285 285 285 286 286 286 286 286 287 287 287 287 287 287 288 288 288 288 288 288 288 289 289 289 289
285 285 284 284 284 284 284 284 284 284 284 284 284 285 285 285 285 285 285 285 284 283 283 283 283 282 282 282 282 282 282 282 281 281 281 281 281 281 281 282 282 282 282 282 282 282 282 282 282 282 282 282 283 283 283 284 284 284 284 284 285 285 285 285 285 286 286 286 286 286 287 287 287 287 287 287 287 288 288 288 288 288 288 288 289 289
284 284 284 284 284 284 284 285 285 285 286 286 286 287 286 286 285 284 283 283 283 282 282 282 282 282 282 282 282 282 282 281 281 281 281 281 281 281 281 281 282 282 282 282 282 282 282 282 282 282 282 282 282 283 283 283 283 284 284 284 284 284 285 285 285 285 286 286 286 286 286 286 286 287 287 287 287 287 288 288 288 288 288 288 289 289
284 284 285 285 285 285 285 286 286 286 286 286 286 286 285 284 283 283 283 282 282 282 282 282 282 282 282 282 281 281 281 281 281 281 281 281 281 281 281 281 281 281 282 282 282 282 282 282 282 282 282 282 282 282 283 283 283 283 283 284 284 284 285 285 285 285 285 285 285 286 286 286 286 286 287 287 287 287 287 288 288 288 288 288 288 288
285 285 285 285 285 285 285 285 286 286 285 285 284 284 283 283 283 282 282 282 282 282 282 282 282 282 281 281 281 281 281 281 281 281 281 281 281 281 281 281 281 282 282 282 282 282 282 282 282 282 282 282 282 282 282 282 283 283 283 284 284 284 284 284 284 285 285 285 285 285 285 286 286 286 286 287 287 287 287 288 288 288 288 288 288 288
284 284 285 285 285 285 285 285 284 284 283 283 283 283 283 282 282 282 282 282 282 282 282 282 281 281 281 281 281 281 281 281 281 281 281 281 281 281 282 282 282 282 282 282 282 282 282 282 282 282 282 282 282 282 282 282 282 283 283 283 283 283 284 284 284 284 284 284 285 285 285 285 286 286 286 286 287 287 287 287 287 288 288 288 288 288
284 284 284 284 284 284 283 283 282 282 282 282 282 282 282 282 282 282 282 282 281 281 281 281 281 281 281 281 281 281 281 281 281 281 281 281 281 281 282 282 282 282 282 282 282 282 282 282 282 282 282 282 282 282 282 282 282 282 282 282 283 283 283 283 283 284 284 284 285 285 285 285 286 286 286 286 286 287 287 287 287 287 287 287 287 287
284 284 283 283 283 282 282 281 281 281 281 281 282 282 282 282 281 281 281 281 281 281 281 281 281 281 281 281 281 281 281 282 282 282 281 281 281 281 281 281 282 282 282 282 282 282 282 282 282 282 282 282 282 282 282 282 282 282 282 282 282 282 282 283 283 283 284 284 284 285 285 285 285 286 286 286 286 286 286 286 287 287 287 287 287 287
283 283 282 282 282 281 281 281 281 281 281 281 281 281 281 281 281 281 281 281 281 281 281 281 281 281 281 282 281 281 281 282 282 282 281 281 281 281 281 281 281 281 282 282 282 282 282 282 282 282 282 282 282 282 282 282 282 282 282 282 282 282 282 283 283 283 284 284 284 284 285 285 285 285 285 285 286 286 286 286 286 286 287 287 287 287
282 282 281 281 281 281 281 281 281 281 281 281 281 281 281 281 281 281 281 281 281 281 281 281 281 281 281 281 281 281 282 282 281 281 281 281 281 281 281 281 281 281 282 282 282 282 282 282 282 282 282 282 282 282 282 282 282 282 282 282 282 282 282 283 283 283 283 284 284 284 284 284 284 285 285 285 285 285 286 286 286 286 286 286 286 286
281 281 281 281 281 281 281 281 281 281 281 281 281 281 281 281 281 281 281 281 281 281 281 281 281 281 281 281 281 281 281 281 281 281 281 281 281 281 281 281 281 281 281 281 281 281 282 282 282 282 282 282 282 282 282 282 282 282 282 282 282 282 282 283 283 283 283 283 283 283 284 284 284 284 284 285 285 285 285 285 286 286 286 286 286 286
281 280 280 281 281 281 281 281 281 281 281 281 281 281 281 281 281 281 281 281 281 281 281 281 281 281 281 281 281 281 281 281 281 281 281 281 281 281 281 281 281 281 281 281 281 281 281 281 282 282 282 282 282 282 282 282 282 282 282 282 282 282 282 283 283 283 283 283 283 283 283 283 283 283 284 284 284 284 285 285 285 286 286 286 286 286
280 280 280 281 281 281 281 281 281 281 281 281 281 281 281 281 281 281 281 281 281 281 281 281 281 281 281 281 281 281 281 281 281 281 281 281 281 281 281 281 281 281 281 281 281 281 281 282 282 282 282 282 282 282 282 282 282 282 282 282 282 283 283 283 283 283 283 283 283 283 283 283 283 283 283 283 284 284 284 285 285 286 286 286 286 287
280 280 281 281 281 281 281 281 281 281 281 281 281 281 281 281 281 281 281 281 281 281 281 281 281 281 281 281 281 281 281 281 281 281 281 281 281 281 281 281 281 281 281 281 281 281 281 281 282 282 282 282 282 282 282 282 282 282 282 282 283 283 283 283 283 283 283 283 283 283 283 283 283 283 283 284 284 284 285 285 285 286 286 286 286 286
280 281 281 281 281 281 281 281 281 281 281 281 281 281 281 281 281 281 281 281 281 281 280 280 280 280 281 280 281 281 281 281 281 281 281 281 281 281 281 281 281 281 281 281 281 281 281 281 282 282 282 282 282 282 282 282 282 282 282 283 283 283 283 283 283 283 283 283 283 283 283 284 284 284 284 284 284 284 285 285 285 285 285 286 286 286
281 281 281 281 281 281 281 281 281 281 281 281 281 281 281 281 281 280 280 280 280 280 280 280 280 280 280 280 280 280 280 280 280 280 280 280 280 280 281 281 281 281 281 281 281 281 281 281 282 282 282 282 282 282 282 282 282 282 282 283 283 283 283 283 283 283 283 283 284 284 284 284 284 284 284 284 284 284 284 284 284 284 285 285 285 285
281 281 281 281 281 281 281 281 281 281 280 280 280 280 280 280 280 280 280 280 280 280 280 280 280 280 280 280 280 280 280 280 280 280 280 280 280 280 281 281 281 281 281 281 281 281 281 281 281 282 282 282 282 282 282 282 282 282 282 283 283 283 283 283 283 284 284 284 284 284 284 284 284 284 284 284 284 284 284 284 284 284 284 284 285 285
281 281 281 281 281 281 281 280 280 280 280 280 280 280 280 280 280 280 280 280 280 280 280 280 280 280 280 280 280 280 280 280 280 280 280 280 280 280 281 281 281 281 281 281 281 281 281 281 281 282 282 282 282 282 282 282 282 282 283 283 283 283 283 283 284 284 284 284 284 284 284 284 284 284 284 284 284 284 284 284 284 284 284 284 284 284
281 281 281 280 280 280 280 280 280 280 280 280 280 280 280 280 280 280 280 280 280 280 280 280 280 280 280 280 280 280 280 280 280 280 280 281 281 281 281 281 281 281 281 281 281 281 281 281 281 282 282 282 282 282 282 282 282 283 283 283 283 283 283 283 284 284 284 284 284 284 284 284 284 284 284 284 284 285 285 284 284 284 284 284 285 285
280 280 280 280 280 280 280 280 280 280 280 280 280 280 280 280 280 280 280 280 280 280 280 280 280 280 280 280 280 280 280 280 280 280 281 281 281 281 281 281 281 281 281 281 281 281 281 281 281 281 282 282 282 282 282 282 282 282 283 283 283 283 283 284 284 284 284 284 284 284 284 284 284 284 284 284 284 284 285 285 285 285 285 285 285 285
280 280 280 280 280 280 280 280 280 280 280 280 280 280 280 280 280 280 280 280 280 280 280 280 280 280 280 280 280 280 280 281 281 281 281 281 281 281 281 281 281 281 281 281 281 281 281 281 281 282 282 282 282 282 282 282 282 283 283 283 283 283 284 284 284 284 284 284 284 284 284 284 284 284 284 284 284 284 285 285 285 285 285 285 285 285
280 280 280 280 280 280 280 280 280 280 280 279 279 280 280 280 280 280 280 280 280 280 280 280 280 280 280 280 280 280 280 281 281 281 281 281 281 281 281 281 281 281 281 281 281 281 281 282 282 282 282 282 282 282 282 283 283 283 283 283 283 283 284 284 284 284 284 284 284 284 284 284 284 284 284 284 284 285 285 285 285 285 285 285 285 285
279 280 280 280 280 279 279 279 279 279 279 279 279 279 279 279 279 280 280 280 280 280 280 280 280 280 280 280 280 280 280 281 281 281 281 281 281 281 281 281 281 281 281 281 281 281 282 282 282 282 282 282 282 282 283 283 283 283 283 283 283 283 284 284 284 284 284 284 284 284 284 284 284 284 284 285 285 285 285 285 285 285 285 285 285 285
279 279 279 279 279 279 279 279 279 279 279 279 279 279 279 279 279 279 280 280 280 280 280 280 280 280 280 280 280 280 280 281 281 281 281 281 281 281 281 281 281 281 281 282 282 282 282 282 282 282 282 282 282 283 283 283 283 283 283 283 283 283 284 284 284 284 284 284 284 284 284 284 284 285 285 285 285 285 285 285 286 286 286 285 285 286
279 279 279 279 279 279 279 279 279 279 279 279 279 279 279 279 279 279 280 280 280 280 280 280 280 280 280 280 280 280 280 280 281 281 281 281 281 281 281 281 282 282 282 282 282 282 282 282 282 282 282 282 282 283 283 283 283 283 283 283 283 284 284 284 284 284 284 284 284 285 285 285 285 285 285 285 286 286 286 286 286 286 286 285 285 285
279 279 279 279 279 279 279 279 279 279 279 279 279 279 279 279 279 279 280 280 280 280 280 280 280 280 280 280 280 280 280 280 281 281 281 281 281 281 282 282 282 282 282 282 282 282 282 282 282 282 282 282 282 283 283 283 283 283 283 283 283 284 284 284 284 284 284 285 285 285 285 285 285 285 285 286 286 285 285 285 285 285 285 285 285 285
278 278 278 278 278 278 278 278 278 278 279 279 279 279 279 279 279 279 279 279 279 279 279 280 280 280 280 280 280 280 280 280 281 281 281 281 281 282 282 282 282 282 282 282 282 282 282 282 282 283 283 283 283 283 283 283 283 283 283 284 284 284 284 284 285 285 285 285 285 286 286 285 285 285 285 285 285 285 285 285 285 285 285 285 285 285
278 278 278 278 278 278 278 278 278 278 278 279 279 279 279 279 279 279 279 279 279 279 279 280 280 280 280 280 280 280 280 281 281 281 281 281 281 282 282 282 282 282 282 282 282 282 283 283 283 283 283 283 283 283 283 283 284 284 284 284 284 285 285 285 285 285 285 286 286 285 285 285 285 285 285 285 285 285 285 285 285 285 285 285 285 285
278 278 278 278 278 278 278 278 278 278 278 278 279 279 279 279 279 279 279 279 279 279 279 279 280 280 280 280 280 280 281 281 281 281 281 281 281 282 282 282 282 282 282 282 282 283 283 283 283 284 284 284 284 284 284 284 284 285 285 285 285 285 285 285 286 286 286 285 285 285 285 285 285 285 285 285 285 285 285 285 285 285 285 285 285 285
Wind_Speed
18 19 19 19 20 20 20 21 22 23 25 26 27 27 27 27 27 27 27 27 27 27 27 27 27 27 26 26 26 25 25 25 26 26 26 26 27 27 27 27 27 27 28 28 28 28 28 28 28 28 28 28 28 28 28 28 28 28 28 28 28 28 28 28 28 28 28 28 28 28 28 28 28 28 28 27 27 27 27 27 27 27 27 28 28 29
18 18 18 18 18 19 21 21 22 23 25 26 27 27 27 27 28 27 27 27 26 26 26 26 26 26 26 26 26 25 25 25 26 26 26 27 27 27 27 28 28 28 28 28 28 28 28 28 28 28 28 28 28 28 28 28 28 28 28 28 28 28 28 28 28 28 28 28 28 28 28 28 28 28 27 27 27 27 27 27 27 27 27 28 28 28
18 18 18 18 18 19 21 22 22 23 24 26 26 26 27 28 28 27 27 26 26 25 25 25 25 25 25 26 26 25 25 25 25 26 26 27 27 28 28 28 28 28 28 28 28 28 28 28 28 28 28 28 28 28 28 28 28 28 28 28 28 29 29 29 29 28 28 28 28 28 28 28 27 27 27 27 27 28 28 28 28 28 29 29 29 29
17 17 18 19 19 19 20 22 23 23 24 25 25 26 26 27 27 26 26 26 26 25 25 24 24 24 25 25 26 26 25 25 25 26 26 27 28 28 28 28 28 28 28 28 28 28 28 28 28 28 28 28 29 29 29 29 29 29 29 29 29 29 29 29 29 29 28 28 28 28 27 27 27 27 27 27 27 28 28 28 28 29 29 29 30 30
17 17 19 19 20 20 21 21 22 23 23 24 24 25 25 26 26 26 26 25 25 24 23 23 23 23 24 25 26 26 25 25 25 26 27 27 28 28 28 28 28 28 28 28 28 28 28 28 28 29 29 29 29 29 29 29 29 29 29 29 29 29 29 29 29 28 28 28 27 27 27 27 27 27 27 27 27 27 28 28 28 28 29 29 30 30
18 18 19 19 20 20 21 21 21 22 22 23 23 24 25 25 25 25 24 23 23 22 22 23 23 23 24 25 25 25 25 25 26 26 27 27 28 28 28 28 28 28 28 28 28 28 28 29 29 29 29 29 29 30 30 30 30 30 30 30 30 29 29 29 28 28 28 27 27 27 26 26 26 26 27 27 27 27 27 27 28 28 28 28 29 29
19 19 20 20 20 20 20 20 20 20 21 23 24 25 25 25 24 23 22 21 21 22 23 23 23 23 23 24 25 25 25 26 26 27 27 27 27 27 27 27 27 27 28 28 28 28 29 29 29 29 29 30 30 30 30 30 30 30 30 30 30 29 29 28 28 27 27 27 27 26 26 26 26 26 26 26 26 27 27 27 27 27 28 28 29 29
20 21 20 20 20 19 19 18 19 20 21 23 24 25 25 24 22 21 20 20 21 21 22 22 23 23 23 24 25 25 26 26 27 27 27 27 27 27 27 27 27 27 27 28 28 28 28 29 29 29 30 30 30 31 31 31 31 30 30 29 29 28 28 28 27 27 27 26 26 26 26 26 26 26 26 26 26 26 27 27 27 27 28 28 29 29
20 21 20 19 18 18 18 19 20 21 22 23 24 24 23 22 21 19 19 19 20 20 21 22 23 24 24 24 25 25 25 25 25 26 26 27 27 27 27 27 27 27 27 27 28 28 28 29 29 30 30 31 31 31 31 31 30 30 29 29 28 28 27 27 27 27 26 26 26 26 26 26 26 26 26 26 27 27 27 28 28 28 28 29 29 29
20 20 19 17 16 16 18 21 23 23 23 23 23 22 20 20 19 19 20 21 21 22 22 22 24 25 25 25 25 25 25 25 25 25 26 26 27 27 27 26 26 26 26 27 27 28 29 29 30 30 31 31 31 31 30 30 29 29 28 28 27 27 27 27 27 26 26 26 26 26 27 27 27 27 27 27 28 28 28 29 29 29 29 29 29 30
18 17 17 16 16 17 19 20 22 23 23 23 21 19 17 16 17 19 21 22 24 24 23 23 23 24 25 26 26 26 26 26 26 26 26 26 26 26 26 25 25 25 26 27 27 28 29 29 30 30 30 30 30 29 29 28 28 28 27 27 27 27 27 27 26 26 26 27 27 27 27 27 27 28 28 28 29 29 29 29 29 29 29 29 30 30
16 16 16 16 17 18 19 19 20 20 20 19 18 16 14 15 17 20 21 23 24 25 24 24 24 24 24 26 26 26 26 26 26 26 26 26 26 25 25 24 25 25 26 27 28 28 29 29 30 30 30 30 29 28 28 28 27 27 27 27 27 27 27 27 27 27 27 28 28 28 28 28 29 29 29 29 29 29 29 29 29 29 30 30 30 30
16 16 16 18 18 18 18 19 19 18 18 17 15 15 16 18 20 21 21 22 23 24 24 25 25 25 25 25 25 25 25 25 25 25 25 24 24 24 24 24 25 26 27 28 29 29 30 30 30 29 29 29 28 28 27 27 27 27 27 27 27 27 27 27 27 28 28 29 29 29 29 29 29 29 29 29 29 29 29 30 30 30 30 30 30 30
17 17 17 18 18 18 18 19 18 18 17 16 16 17 18 20 21 21 21 22 22 23 24 24 25 25 25 24 24 23 23 23 24 24 23 23 23 23 24 25 25 26 27 28 29 30 30 29 29 30 30 30 29 29 28 28 27 27 27 27 27 28 28 28 29 29 29 29 30 30 30 30 30 30 30 30 30 30 30 30 30 30 30 30 30 31
17 17 16 15 16 17 18 18 18 17 17 17 18 19 20 21 21 20 20 21 22 23 24 24 25 25 24 23 22 22 22 21 22 22 23 23 24 24 25 25 26 27 28 28 29 30 30 29 29 30 30 31 30 30 28 28 28 28 28 28 28 29 29 29 29 30 30 30 30 30 30 30 31 31 31 30 30 30 30 30 30 30 30 30 30 30
15 14 14 15 16 17 18 18 18 18 19 19 19 19 20 20 20 20 20 21 22 22 22 22 22 23 24 23 21 20 20 20 20 21 22 24 25 25 25 26 27 28 28 28 29 29 29 29 29 29 30 30 30 29 28 28 28 29 29 29 30 30 30 30 30 30 30 30 30 30 30 31 31 31 31 31 30 30 30 30 29 29 29 29 30 30
13 13 14 14 16 18 19 19 19 19 19 19 19 19 19 19 20 20 20 21 21 21 20 19 16 14 16 22 23 20 19 20 20 21 23 25 27 27 26 26 27 28 28 28 28 28 28 28 28 29 30 30 29 29 29 29 29 30 30 30 30 30 30 30 30 30 30 31 31 31 31 31 31 31 31 31 30 30 30 29 29 29 29 29 29 29
13 15 17 17 17 18 19 19 19 19 19 19 19 19 19 20 20 21 21 21 21 21 20 20 17 13 12 17 21 22 20 20 21 23 24 27 28 29 27 26 26 27 28 28 27 27 27 28 28 29 29 30 29 30 30 30 31 31 31 31 31 31 31 31 31 31 31 31 31 31 31 31 31 31 31 30 30 30 29 29 29 29 29 29 29 29
17 18 18 18 19 19 20 20 19 19 18 18 19 20 20 21 21 21 22 22 22 21 21 20 19 18 18 19 22 23 22 22 23 24 26 28 29 29 27 25 25 26 26 27 27 27 27 27 28 29 30 30 30 30 30 31 31 31 31 31 31 31 31 31 31 31 31 31 32 31 31 31 31 31 31 30 30 30 30 30 30 30 30 30 29 29
19 20 19 19 19 19 19 20 19 19 19 19 20 21 21 22 22 22 22 22 22 21 21 20 19 19 19 20 22 24 24 24 24 25 26 27 28 28 26 24 24 25 26 26 27 26 26 27 29 30 30 30 30 30 30 31 31 32 32 32 32 32 32 32 32 32 32 32 32 32 32 31 31 31 31 31 31 31 31 31 31 30 30 30 29 29
20 20 20 19 18 18 19 20 20 21 21 21 22 22 22 23 23 23 23 23 22 20 18 16 16 18 19 22 25 27 27 26 24 24 25 25 26 26 24 23 23 24 25 26 26 26 26 27 28 29 30 30 30 30 31 32 32 32 33 33 33 33 32 32 32 32 32 32 32 32 32 31 31 31 31 31 31 31 31 31 31 30 30 29 29 29
20 20 20 20 20 19 20 22 22 22 23 24 23 23 23 23 23 23 23 22 19 17 16 16 18 21 24 26 28 29 28 25 23 22 22 21 23 25 24 22 22 23 25 26 26 26 26 26 28 29 30 30 31 31 31 32 32 32 33 33 33 33 33 33 32 32 32 32 32 32 32 32 31 31 31 31 31 31 31 30 30 30 30 29 29 29
19 19 21 21 21 21 22 23 24 25 25 25 25 25 25 25 24 23 21 19 18 18 19 22 25 27 28 28 28 28 27 24 22 21 19 16 19 23 24 22 22 23 24 25 25 25 26 27 28 29 30 30 30 31 31 32 32 33 33 33 33 33 33 33 32 32 32 32 32 32 32 32 32 32 32 32 31 31 31 30 30 30 30 29 29 29
19 20 22 22 22 23 24 24 25 25 25 25 25 26 26 24 22 20 19 20 22 23 25 27 28 28 27 27 26 25 24 22 21 19 18 17 19 23 24 23 22 23 25 26 26 26 26 27 28 28 29 29 30 30 31 31 32 32 33 33 33 33 33 32 32 32 32 32 32 32 32 32 33 32 32 32 32 31 31 30 30 30 29 29 29 29
21 22 22 23 23 23 23 24 24 24 25 25 25 25 23 22 21 22 24 26 26 26 26 25 24 23 24 23 23 23 23 21 19 18 17 17 20 23 24 23 22 23 25 26 26 25 25 26 27 28 28 29 30 30 31 31 32 32 32 32 32 32 32 32 32 32 32 32 33 33 33 33 33 32 32 32 31 31 30 30 30 30 29 30 30 30
22 22 23 23 23 24 24 25 25 25 25 25 25 25 24 24 24 25 27 25 23 22 21 20 19 19 21 21 21 22 22 21 19 18 18 17 20 23 24 23 22 23 25 26 25 25 25 26 27 28 29 30 30 30 31 31 31 31 31 32 32 32 32 32 32 32 33 33 33 33 33 32 32 32 32 31 31 31 30 30 30 30 30 30 30 30
22 22 23 23 23 23 23 23 23 23 24 24 24 24 23 23 23 22 21 20 19 18 17 16 14 16 19 19 20 21 22 21 20 19 18 19 20 21 23 22 22 22 24 25 25 25 25 26 28 29 29 30 30 30 30 30 30 30 31 31 31 32 32 32 33 33 33 33 33 32 32 32 32 31 31 31 31 31 30 30 30 30 30 30 29 29
21 21 20 20 20 20 21 21 22 23 23 23 23 22 21 20 19 18 18 18 18 17 17 15 13 12 14 17 20 23 24 22 21 20 19 18 18 18 22 22 22 22 23 25 26 26 26 26 27 28 28 29 29 29 28 28 29 29 30 31 32 32 33 33 33 32 32 32 32 32 31 31 31 31 31 31 31 31 30 30 30 30 30 29 28 27
19 18 18 18 19 20 21 22 23 23 23 22 21 20 19 18 17 17 18 19 19 18 17 17 16 15 15 19 22 24 24 22 21 19 18 16 16 18 21 22 22 22 23 24 26 27 25 25 24 25 25 26 26 27 27 28 29 30 31 32 32 32 32 32 32 31 31 31 31 31 31 31 31 31 31 31 31 31 30 30 30 29 28 27 26 27
17 17 18 19 20 21 22 23 23 22 21 20 19 18 17 17 18 19 20 20 19 18 18 18 18 18 18 18 18 18 19 21 19 17 16 14 15 18 22 22 22 22 21 20 17 17 20 23 23 22 23 24 25 26 27 29 30 30 30 31 31 31 31 31 31 31 31 31 31 31 31 31 31 31 31 31 30 30 30 30 29 28 27 26 26 26
19 20 21 22 23 23 23 22 21 21 20 19 19 18 18 18 19 19 20 19 19 19 19 19 19 19 18 14 9 7 10 19 21 18 17 16 17 19 21 21 22 23 21 17 8 4 11 17 22 23 22 23 25 27 28 29 29 30 30 30 31 31 31 31 30 30 31 31 31 31 31 31 30 31 30 30 30 30 30 29 29 28 26 26 26 25
22 23 23 23 23 22 21 20 20 20 20 20 19 19 18 18 18 19 19 19 19 19 19 20 20 20 19 16 12 9 13 22 24 22 20 18 19 21 21 21 22 23 22 20 15 10 8 8 17 25 25 25 26 27 28 28 29 29 30 30 30 31 31 31 30 30 30 30 30 30 30 30 30 30 30 30 30 30 30 29 28 27 26 25 25 25
23 23 22 22 21 21 20 20 20 20 20 20 19 19 19 19 18 18 18 19 19 19 19 20 20 20 20 21 20 20 24 26 26 24 21 19 19 20 21 21 22 23 23 23 23 20 15 14 19 26 27 26 26 26 27 28 28 29 29 29 30 31 31 30 29 29 29 30 30 30 30 30 30 30 30 29 29 29 29 29 28 27 25 25 25 25
22 21 20 20 20 19 19 19 20 20 19 19 19 19 19 19 18 19 19 19 19 20 20 21 21 21 21 21 22 24 27 27 26 23 21 19 19 20 22 22 22 23 23 23 23 22 21 23 24 24 24 26 27 26 26 26 27 28 29 29 30 30 30 30 29 29 29 30 30 30 30 30 30 30 29 29 29 28 28 27 27 26 25 25 25 25
20 19 19 18 18 19 19 19 19 19 19 19 19 19 19 19 19 19 19 20 20 21 21 21 22 22 22 21 22 23 27 28 26 24 22 21 21 21 23 23 23 23 21 21 21 20 20 23 24 24 22 24 26 27 26 26 27 28 28 29 29 29 30 30 30 29 30 30 29 29 29 30 30 30 29 29 28 27 27 27 27 26 26 26 26 26
19 18 18 18 18 18 19 19 19 19 18 19 19 19 19 19 20 20 20 21 22 22 22 23 23 24 24 24 24 25 28 30 29 28 26 24 24 23 23 24 25 24 22 22 21 20 19 21 23 25 23 21 21 24 27 27 27 27 28 28 28 29 29 29 29 29 29 29 29 29 29 29 29 29 29 29 28 27 27 28 28 28 28 28 28 27
17 17 17 17 17 18 18 18 18 18 19 19 19 20 20 20 21 21 21 22 23 24 24 24 25 25 26 27 27 29 30 32 32 31 30 29 28 27 25 26 27 26 23 23 22 22 21 20 20 22 21 19 18 20 24 27 28 28 28 28 28 28 29 29 28 28 27 28 28 28 28 27 27 27 28 28 28 28 29 29 29 29 28 28 28 28
16 16 17 17 17 17 18 18 18 19 19 20 20 21 21 22 22 23 23 23 24 25 25 25 26 26 27 28 30 31 33 34 35 35 35 33 32 30 28 27 27 26 25 24 24 24 22 17 14 13 13 18 21 24 26 27 27 28 29 29 29 29 29 29 28 27 26 26 27 27 27 27 27 27 28 29 29 29 29 29 29 29 28 28 28 28
16 17 17 17 17 17 17 18 19 19 20 21 21 22 22 22 23 23 23 24 24 24 25 25 26 27 28 30 31 32 32 33 34 35 34 34 33 31 29 28 27 27 27 26 25 25 23 19 15 12 10 15 21 25 27 27 27 28 29 29 29 29 28 27 26 26 26 26 26 27 27 27 28 28 28 28 29 29 28 29 29 28 28 27 27 28
16 17 17 17 17 18 18 19 19 20 21 21 22 22 22 22 23 23 23 23 23 24 24 25 26 26 27 28 28 29 29 31 32 32 33 32 32 32 30 28 27 27 27 26 26 25 24 23 22 22 22 20 21 23 25 26 27 28 28 26 25 27 28 27 27 26 26 26 26 26 26 27 26 26 26 27 27 27 27 28 28 28 28 26 26 26
16 17 18 18 18 19 19 20 20 21 21 22 22 22 22 21 22 23 23 24 23 23 23 23 24 25 27 27 28 28 28 29 29 30 30 31 31 31 30 29 28 28 27 27 26 25 25 25 25 25 25 25 25 25 26 27 29 29 28 25 25 28 30 30 28 27 26 25 25 25 25 25 26 26 26 26 27 29 29 29 29 29 28 27 26 25
17 17 18 19 19 19 20 20 21 21 21 21 20 20 20 21 21 22 22 23 23 23 23 23 23 25 26 27 28 27 27 27 28 28 28 29 29 29 30 30 29 28 27 26 25 26 26 25 25 24 25 25 25 24 25 28 30 30 29 27 28 29 29 29 28 26 24 24 24 24 24 25 25 26 27 27 28 30 30 31 30 30 28 28 27 27
18 18 19 19 20 20 20 20 20 20 20 20 20 20 21 21 21 21 22 22 23 24 23 23 23 23 24 26 27 28 28 27 27 26 26 27 27 27 28 29 30 30 29 26 25 26 26 26 25 25 26 26 25 24 25 27 29 30 29 29 27 24 21 25 27 27 25 25 25 25 25 26 26 27 28 28 29 30 31 30 30 30 30 29 29 29
18 19 19 19 19 20 20 20 20 20 20 20 21 21 22 21 21 21 22 22 23 23 23 23 22 22 23 24 26 28 28 27 27 26 25 25 25 26 26 27 28 29 29 27 25 24 25 26 26 26 27 26 25 24 25 27 28 29 29 29 28 25 22 24 27 28 27 26 26 26 26 27 27 28 29 28 28 28 29 29 29 30 30 30 30 30
18 19 19 19 19 19 19 20 20 20 20 21 21 21 22 22 21 21 21 22 22 22 22 22 21 21 21 23 24 26 27 28 28 27 26 26 25 25 25 26 27 28 28 27 26 25 24 24 25 27 27 26 25 25 26 26 27 28 29 30 29 28 28 29 29 28 27 26 27 27 27 28 28 29 28 28 28 27 27 26 26 27 28 28 29 29
18 18 18 19 19 19 19 20 20 20 21 21 21 21 22 22 21 21 21 21 22 22 22 22 20 19 20 21 23 24 25 27 28 28 28 27 26 26 26 26 26 26 27 27 28 27 26 26 27 27 27 26 26 27 28 28 27 27 28 29 29 28 29 29 29 28 27 27 27 28 28 28 27 25 25 26 27 27 27 26 26 26 27 27 27 28
17 18 18 19 19 19 19 20 20 20 21 21 21 22 22 21 21 21 21 21 21 21 22 22 20 19 20 21 22 22 22 24 26 28 28 28 28 28 27 27 26 26 26 27 27 28 29 30 29 28 26 24 24 26 28 29 28 27 27 28 28 27 27 28 28 28 27 26 27 28 27 26 24 24 24 25 26 27 27 27 27 27 27 27 27 28
18 18 19 19 19 19 19 19 20 20 20 21 22 22 22 21 21 21 21 21 21 21 21 21 20 20 21 22 22 22 22 23 24 26 27 28 28 28 28 27 26 26 27 27 28 28 29 30 31 30 28 26 24 24 27 29 29 28 27 27 27 26 26 28 28 28 26 26 26 26 25 24 23 23 24 25 26 27 28 28 28 27 27 27 28 29
18 18 18 19 19 19 20 20 20 20 20 21 22 23 23 23 22 21 21 21 21 20 20 20 20 20 21 22 23 23 24 24 24 25 25 26 26 26 27 27 27 27 27 28 28 28 28 28 29 29 28 28 27 26 28 29 29 29 28 27 26 25 26 27 28 27 26 25 25 26 26 24 24 24 23 23 24 27 29 29 29 28 27 27 27 29
18 18 18 18 18 19 19 20 20 20 21 21 22 23 23 23 23 22 21 21 20 20 20 20 20 20 21 22 23 23 24 23 23 24 25 25 25 25 25 26 26 26 26 26 26 25 25 24 25 25 25 25 26 27 27 28 29 29 28 27 26 26 25 26 26 26 25 25 25 25 25 25 25 25 24 23 24 26 28 29 28 27 26 25 26 27
18 18 18 18 18 19 19 20 20 20 21 21 22 22 23 23 23 23 22 21 21 20 20 20 20 20 21 22 23 23 24 23 23 24 25 25 25 24 24 24 24 23 22 21 20 19 18 16 17 20 22 22 22 23 25 26 27 27 26 26 26 26 24 25 25 25 25 25 25 26 26 26 26 25 24 24 23 23 24 26 27 27 26 24 24 25
Wind_Direction
303 305 306 308 309 308 308 308 309 309 309 309 310 310 310 310 309 308 307 306 306 305 305 304 304 304 304 304 303 303 303 303 303 303 303 303 302 302 302 302 302 302 302 302 302 302 301 301 301 300 300 299 299 298 298 297 297 296 295 295 294 294 293 293 293 293 293 292 292 292 291 291 291 291 291 290 290 289 288 287 286 285 283 282 281 280
305 306 307 308 309 308 306 307 308 308 307 307 307 308 308 307 306 305 305 304 304 304 303 303 303 303 302 303 303 303 303 303 303 303 303 303 303 303 303 302 303 303 303 303 302 302 302 301 301 301 300 300 299 299 298 297 297 296 295 295 295 294 294 293 293 293 293 292 292 292 291 291 290 290 289 289 288 287 286 286 285 284 283 283 282 280
309 309 308 309 308 307 305 306 306 306 305 305 305 305 305 305 304 303 303 303 302 302 302 301 301 301 301 301 302 303 303 303 303 303 303 303 303 303 303 303 303 303 303 302 302 302 302 301 301 301 300 300 299 298 298 297 297 296 296 295 295 295 294 294 293 293 293 293 292 291 290 290 289 289 288 287 286 285 284 283 282 282 281 280 280 279
310 309 309 309 308 305 303 304 304 304 304 303 303 304 304 303 302 301 301 301 301 300 300 300 300 300 300 301 302 303 304 304 303 303 303 303 303 303 303 303 303 302 302 302 302 302 301 301 301 300 300 299 299 298 297 297 297 296 296 296 296 295 295 295 294 293 293 293 292 291 291 290 289 288 287 286 285 284 283 282 281 280 279 278 277 276
309 308 308 308 307 304 302 302 303 304 304 303 303 303 303 302 300 300 300 300 299 299 299 299 300 300 301 302 303 304 304 304 304 303 303 303 302 302 302 302 302 302 302 301 301 301 301 300 300 300 299 299 298 298 297 297 297 297 297 297 296 296 295 295 294 293 293 293 292 292 291 290 289 287 286 285 284 283 282 281 280 279 278 277 276 275
307 307 306 305 303 302 302 302 302 304 305 304 305 304 303 301 300 299 299 299 298 298 299 300 301 302 303 304 305 305 305 304 304 303 303 302 302 302 302 302 302 301 301 301 301 301 300 300 299 299 299 298 298 298 297 297 297 297 297 297 297 296 296 295 295 294 293 293 292 291 290 289 288 287 286 284 283 282 281 280 279 278 277 276 275 274
306 306 305 302 300 299 299 301 303 305 306 307 306 305 303 301 300 299 297 297 298 300 301 303 304 305 305 305 305 305 305 305 304 304 303 302 302 301 301 301 301 301 301 301 301 300 300 299 299 299 298 298 298 298 298 298 298 298 298 297 297 296 296 296 295 295 294 293 292 291 290 289 288 287 286 284 283 282 281 280 279 278 277 276 275 274
305 305 304 302 300 299 300 301 304 307 307 306 305 304 302 301 300 298 298 299 301 303 305 306 307 306 306 306 306 306 305 305 305 304 303 303 302 301 301 301 300 300 300 300 300 300 299 299 299 299 299 299 299 299 298 298 298 298 298 297 297 297 296 296 295 295 294 293 292 291 290 289 288 286 285 284 283 282 281 280 279 278 277 276 274 274
303 303 302 300 300 302 304 305 306 307 306 303 301 299 299 300 300 301 302 304 306 307 308 309 309 308 307 307 307 307 306 304 304 303 302 302 301 300 300 300 300 300 299 299 300 299 299 299 299 299 299 299 299 299 299 299 299 298 298 297 297 297 296 295 295 294 294 293 292 290 289 288 287 286 285 284 283 282 281 280 279 278 277 276 275 274
300 300 300 299 300 303 305 306 306 306 304 301 296 293 293 296 301 305 308 309 310 310 310 310 310 309 308 308 308 307 306 304 302 300 299 299 299 298 298 298 298 298 298 299 299 299 299 299 299 299 299 299 299 299 299 299 298 298 297 297 296 296 296 295 294 294 293 292 290 289 289 288 288 287 286 285 284 283 282 281 280 279 278 277 276 275
300 300 300 302 304 305 303 302 302 303 304 302 298 295 294 298 305 311 313 313 312 312 311 310 309 309 309 309 308 307 306 303 302 300 299 299 298 298 298 297 297 298 298 299 299 299 299 299 299 299 299 299 299 299 299 299 298 297 297 296 296 295 295 294 293 292 291 290 289 289 289 289 288 287 286 285 284 283 283 282 281 280 280 279 278 277
300 302 303 305 305 304 302 300 300 302 304 305 305 305 305 309 313 314 313 312 311 311 311 310 309 307 306 306 306 306 304 302 301 300 300 300 300 300 300 300 300 300 300 300 299 299 299 299 300 300 299 299 299 299 299 298 298 297 296 295 295 294 294 293 292 291 290 290 289 289 289 289 288 287 286 285 285 284 283 282 282 281 280 279 278 277
299 301 301 302 301 301 302 303 304 305 307 308 309 311 312 313 314 313 310 307 307 308 309 309 308 306 305 304 303 302 301 300 300 299 299 299 300 301 302 302 302 302 302 301 300 300 299 300 300 300 299 299 298 298 298 297 296 296 295 295 295 294 293 292 292 291 290 290 290 290 290 289 288 288 287 286 286 285 284 283 282 281 280 278 277 277
298 298 297 297 298 300 302 304 305 306 306 307 308 310 310 311 312 310 308 305 305 306 307 307 305 304 304 303 302 301 300 299 299 299 299 299 300 302 303 303 302 302 301 301 300 299 299 300 300 299 299 298 298 298 298 297 297 296 296 295 295 294 294 293 292 292 291 291 291 290 290 289 289 288 288 287 286 285 284 283 282 281 280 278 277 276
292 293 294 295 297 301 303 304 303 303 303 305 307 309 309 309 309 309 307 306 306 307 307 306 304 303 303 303 303 303 302 301 301 301 300 299 300 302 303 303 302 301 300 299 298 297 298 298 298 297 298 298 298 298 298 297 297 296 295 295 295 294 294 293 293 292 292 291 290 290 290 289 289 289 288 288 287 286 285 284 282 281 280 279 277 277
285 289 293 296 298 300 302 302 301 301 302 304 306 308 308 307 307 306 305 304 305 306 306 305 305 304 304 304 305 306 305 304 303 303 302 301 301 302 304 303 301 300 298 297 296 296 296 296 296 296 296 297 297 297 297 296 295 295 295 294 294 294 294 293 293 292 292 291 290 290 290 290 289 289 288 288 287 286 285 284 283 282 280 279 278 277
287 293 297 299 299 300 301 300 299 299 301 303 305 305 304 303 303 303 302 301 302 302 302 301 302 303 305 305 306 307 309 309 308 305 303 301 301 302 303 302 300 298 297 295 294 294 294 295 295 295 295 295 296 296 296 295 294 294 294 294 294 294 294 293 293 292 292 292 291 291 290 290 290 290 289 289 288 287 286 285 284 282 281 279 278 277
298 301 301 300 298 298 299 299 299 299 301 303 303 303 302 300 300 299 298 297 296 296 295 295 295 295 298 301 303 306 310 312 310 307 304 301 300 301 302 301 298 295 294 293 292 292 293 293 293 293 294 294 295 295 294 294 294 294 294 294 294 294 294 293 293 293 292 292 292 292 291 291 291 290 290 289 288 287 286 286 284 283 281 280 278 277
299 299 298 296 295 295 296 297 298 299 301 301 302 302 301 299 298 296 294 292 289 287 287 288 289 289 290 293 298 303 309 312 311 307 303 300 300 300 302 300 297 294 292 291 291 291 292 292 292 292 292 293 293 293 293 294 294 294 294 294 293 293 294 293 293 293 293 293 293 292 292 292 291 290 290 289 288 288 287 286 285 283 282 281 280 280
294 293 291 290 291 292 293 294 295 297 298 299 300 299 298 297 295 293 290 287 285 282 281 282 285 287 290 293 298 303 308 310 309 305 301 299 298 299 300 299 296 293 291 290 290 291 292 292 292 292 292 292 293 293 293 294 294 294 293 293 293 293 293 293 293 293 293 293 293 292 292 291 290 289 289 288 287 287 286 286 285 284 283 282 282 281
288 287 286 287 289 290 291 293 294 295 296 296 296 294 292 292 291 290 288 286 285 284 282 281 285 290 296 299 300 302 305 307 306 303 300 297 296 296 298 297 295 292 291 290 291 292 292 292 291 292 292 292 292 293 293 293 293 292 293 293 293 293 293 294 293 293 293 292 292 291 291 290 290 289 289 289 288 288 288 287 286 285 285 284 282 281
282 283 286 288 289 289 290 292 293 293 293 292 290 287 287 286 286 285 286 287 288 289 291 293 296 298 299 298 298 299 301 302 301 298 297 295 294 294 297 297 295 292 291 291 292 292 292 292 291 291 291 291 291 292 292 292 292 292 292 293 293 293 293 293 293 293 292 292 292 291 291 290 290 290 290 291 290 290 289 288 287 286 285 284 283 282
281 284 289 290 289 288 289 290 291 290 289 286 283 280 279 279 280 281 285 291 297 301 303 302 301 299 298 296 296 296 298 298 297 294 292 290 290 293 297 298 296 293 291 291 293 294 293 292 291 291 291 291 291 291 292 292 292 292 292 293 293 293 293 293 292 292 292 292 292 291 292 292 292 292 292 291 291 290 289 288 288 286 285 285 284 283
287 287 289 289 289 288 288 287 287 288 288 286 284 282 282 283 286 291 298 304 306 306 304 303 301 299 297 296 296 296 297 298 296 293 289 286 288 292 296 297 296 293 291 292 293 294 294 293 291 291 291 291 291 291 291 291 291 291 292 293 293 293 292 292 292 292 292 292 292 292 292 292 292 292 291 291 290 289 289 288 287 287 286 285 284 283
289 288 288 288 288 288 288 288 289 290 292 294 296 298 302 305 307 307 306 305 304 304 303 301 299 297 297 297 297 297 297 298 297 292 287 286 288 291 293 295 294 292 292 293 294 295 294 293 293 292 292 291 291 291 291 291 291 292 292 292 293 292 292 292 292 292 292 292 292 292 292 292 292 291 291 290 290 289 289 288 287 287 286 286 285 285
288 288 288 289 290 291 292 292 294 295 297 300 305 309 312 313 312 308 303 302 302 302 301 299 296 294 296 297 296 296 298 299 298 293 287 287 288 290 292 293 292 291 292 294 295 296 295 294 294 293 292 292 291 291 291 291 291 292 292 292 292 292 292 292 292 292 292 292 292 292 292 291 291 290 290 290 289 289 288 288 288 287 287 287 287 286
290 290 291 292 293 294 295 296 297 298 299 301 303 306 307 308 306 303 299 299 300 300 298 295 294 295 296 296 295 296 298 299 297 293 289 286 286 287 290 292 293 293 293 295 296 296 295 293 293 292 292 291 290 290 290 291 292 292 292 292 292 292 292 292 292 292 292 292 291 291 291 290 290 290 290 289 289 289 288 288 288 288 289 289 289 287
293 293 294 295 296 297 297 298 299 300 300 300 300 301 301 301 299 295 293 295 298 297 294 291 291 293 295 295 295 296 297 296 295 293 291 287 283 284 289 293 295 295 295 296 297 296 294 291 290 290 290 290 291 291 292 293 293 293 293 292 292 292 292 292 292 292 292 291 291 291 290 290 290 289 289 289 289 289 289 289 289 290 290 290 289 287
299 299 299 299 299 300 300 299 299 299 299 299 299 299 297 295 291 289 290 292 293 292 288 287 287 288 290 292 295 296 295 293 293 294 295 290 284 285 290 295 297 297 298 299 299 298 294 291 289 289 290 291 292 292 293 294 294 293 293 293 293 292 292 292 292 292 292 291 290 290 290 290 289 289 289 289 289 289 289 289 290 290 290 289 288 286
308 308 306 304 303 302 302 301 300 300 299 298 297 296 293 289 285 284 285 286 286 284 283 284 285 286 289 292 295 296 294 293 294 298 301 296 290 289 294 296 297 297 299 301 301 299 296 295 294 292 292 293 294 294 294 294 294 294 293 293 293 292 291 292 292 292 291 290 290 290 290 289 289 289 288 288 288 289 289 289 290 290 289 288 286 285
312 309 307 305 304 304 303 303 302 300 299 297 296 294 291 287 283 281 282 281 279 278 279 282 283 285 287 290 293 293 291 293 295 299 302 297 291 290 293 295 295 296 297 297 297 298 299 299 298 297 296 295 295 294 294 294 294 293 293 293 292 291 291 291 292 291 291 290 289 289 289 289 288 288 288 288 288 288 288 288 289 288 288 287 285 283
309 307 306 305 305 305 304 303 302 300 299 298 297 295 291 288 285 282 281 279 277 275 277 280 282 283 283 282 280 278 283 289 292 296 299 295 290 289 292 292 293 294 294 292 289 287 294 297 299 299 298 296 295 294 293 293 292 292 292 291 290 290 290 291 292 291 290 290 290 289 289 288 288 287 287 287 286 286 286 287 287 286 285 284 282 281
307 307 306 307 306 305 303 301 300 299 299 298 297 296 294 291 288 285 282 280 278 277 276 278 280 282 282 281 279 279 281 284 289 293 296 293 290 290 292 292 292 293 294 292 288 285 283 286 293 296 297 295 294 293 292 292 291 290 290 289 288 288 290 290 291 290 290 290 290 289 289 288 287 287 286 285 285 285 285 285 285 284 282 281 279 278
310 309 308 308 306 304 302 301 300 299 298 298 297 297 295 293 290 288 286 283 281 280 278 277 278 280 282 283 282 282 282 284 288 292 295 294 291 290 291 292 292 292 293 293 290 288 285 285 289 293 295 295 294 293 291 291 290 290 289 288 287 287 288 289 289 289 289 289 289 288 287 287 287 286 286 285 285 284 284 284 284 282 280 278 277 277
312 310 308 306 304 303 302 302 301 301 300 299 299 298 297 296 294 291 290 287 286 283 281 278 277 276 278 280 282 283 284 286 289 293 294 292 290 289 290 290 291 291 292 291 290 289 288 288 289 290 293 295 295 294 292 291 290 290 289 288 287 286 287 287 288 288 288 288 287 286 286 286 286 286 285 285 284 284 284 284 284 282 280 278 277 276
310 307 305 304 303 303 303 303 303 303 302 302 301 301 300 298 297 295 293 292 290 288 285 281 279 277 276 276 276 278 282 285 289 291 291 289 287 287 287 287 288 289 288 288 287 287 287 288 289 290 291 292 293 294 294 294 293 292 291 289 288 287 287 287 287 287 287 286 285 284 284 284 284 284 284 284 284 284 283 284 284 283 282 280 278 277
305 303 303 304 304 303 303 303 304 304 304 304 304 303 302 301 299 297 295 294 292 291 289 286 283 280 277 276 275 276 278 282 285 287 287 285 284 283 282 283 285 285 284 284 284 285 286 287 288 290 289 288 289 292 295 296 296 294 292 291 290 289 288 287 287 285 284 283 282 282 282 282 282 282 283 283 284 284 283 282 282 282 281 280 278 277
303 303 303 305 305 305 304 305 305 305 305 305 304 304 303 301 300 299 297 295 293 292 291 289 286 284 282 280 278 278 280 281 283 284 285 284 282 280 279 280 281 281 279 278 280 282 284 285 287 288 289 288 287 289 292 294 295 293 292 292 291 290 288 288 287 285 283 282 282 282 282 282 282 282 282 282 282 282 281 281 281 281 281 280 279 277
303 303 304 305 306 306 305 305 305 305 305 304 303 303 302 301 300 299 298 296 295 293 292 290 288 286 286 285 283 282 282 282 283 284 284 284 282 279 278 277 278 279 278 277 277 278 279 280 281 283 286 288 289 290 290 291 291 291 292 293 293 291 289 289 288 286 285 283 283 283 282 282 281 281 280 280 280 279 278 278 279 280 279 277 277 278
305 304 304 305 306 305 305 304 304 304 304 303 303 303 302 301 301 301 299 298 296 295 294 292 290 289 288 287 286 285 284 284 284 284 285 284 282 280 277 275 276 277 278 277 276 275 275 276 278 279 281 283 286 288 289 288 288 289 291 293 292 291 291 291 289 287 285 283 281 281 281 281 281 280 279 278 277 275 275 275 277 278 277 275 274 275
305 305 305 306 306 305 304 304 304 304 304 304 303 303 302 301 302 302 302 301 300 299 298 297 295 294 292 291 289 287 286 286 286 286 286 286 285 283 280 277 275 276 277 277 276 275 274 275 276 278 279 280 282 284 284 285 286 288 289 288 288 289 290 290 289 286 285 283 281 280 280 281 281 280 279 277 276 275 275 274 274 275 275 274 271 271
305 304 305 305 305 305 305 305 304 305 305 304 302 301 301 301 302 302 303 303 302 302 302 301 300 298 297 296 295 294 292 291 290 290 289 289 289 287 283 280 277 276 275 275 274 274 274 274 274 275 276 278 280 281 283 284 285 286 286 285 286 288 290 289 288 287 285 283 282 281 280 280 280 280 279 277 276 276 275 274 274 273 273 271 269 268
303 302 303 304 304 305 305 306 306 306 306 304 302 301 301 301 301 301 301 300 300 301 302 301 300 298 297 297 298 299 298 297 295 294 293 292 291 289 287 285 282 279 277 274 273 274 275 274 273 272 274 276 277 278 281 283 285 285 285 284 285 286 288 288 289 289 287 285 283 282 281 279 278 278 278 277 277 276 275 274 273 272 270 268 267 266
300 301 303 304 305 306 307 307 307 307 305 304 302 302 302 302 302 301 300 299 299 299 300 300 299 297 296 296 298 301 302 301 300 299 297 296 294 293 290 288 286 283 279 274 272 274 276 276 275 274 275 275 275 276 278 280 282 284 284 284 283 281 280 283 286 288 288 286 284 282 279 278 278 278 278 277 276 275 274 273 271 270 268 266 265 264
300 301 304 305 307 308 308 307 307 306 305 303 302 302 303 303 303 301 300 298 298 298 298 298 298 298 297 297 298 301 303 304 305 304 303 301 299 297 293 290 287 284 280 276 272 271 272 275 277 278 279 278 276 274 276 278 280 282 282 283 282 281 279 281 283 285 285 284 283 282 280 279 279 280 279 278 277 275 274 272 270 269 268 266 264 262
303 304 306 307 308 307 307 306 306 306 305 304 304 304 305 305 304 302 300 298 297 297 298 298 297 295 295 297 298 300 302 304 306 306 306 305 304 301 298 294 291 287 283 279 276 273 271 271 274 277 280 279 278 277 276 276 278 279 281 282 282 283 283 283 283 282 282 281 282 282 281 280 278 276 276 277 278 278 276 274 272 271 269 267 265 263
305 306 307 307 307 307 306 307 307 307 307 306 305 305 306 306 305 304 302 300 298 298 298 299 297 293 292 294 296 297 299 300 302 304 306 306 306 305 303 299 295 291 287 284 281 278 275 272 272 272 274 276 277 278 277 277 277 277 278 280 282 282 282 282 282 281 280 279 280 280 281 280 279 277 277 278 280 280 279 278 275 273 270 268 266 265
307 307 307 307 307 307 307 308 308 308 308 307 307 307 307 307 306 304 302 302 301 299 299 298 296 294 293 293 294 295 296 297 298 300 302 303 304 304 303 301 299 296 293 290 286 282 278 275 273 270 268 268 271 274 277 278 277 276 276 278 279 279 280 281 281 282 280 279 279 279 279 280 279 280 280 281 282 282 281 280 278 275 272 269 267 266
307 307 306 306 306 307 307 308 309 309 308 307 307 308 308 308 307 305 302 302 301 299 298 296 295 294 295 295 295 295 296 296 297 297 298 300 301 302 302 302 300 299 297 296 293 288 284 281 277 272 267 263 263 267 272 275 276 276 276 277 277 277 277 280 282 282 282 282 281 281 282 281 280 280 280 280 280 281 282 281 279 277 273 270 268 266
307 307 307 307 306 306 307 308 309 308 307 307 307 307 307 308 307 306 304 303 301 299 297 295 294 294 295 295 296 297 298 297 297 297 298 299 300 300 300 300 301 300 299 298 297 295 293 291 287 282 275 266 261 260 264 269 273 276 277 277 276 277 277 280 282 283 284 285 285 285 285 284 282 280 279 277 278 280 281 281 280 278 276 273 270 268
308 308 308 308 307 307 307 307 307 306 305 305 305 305 305 306 306 307 306 305 303 300 298 297 295 294 294 295 296 297 298 297 296 296 297 298 299 299 298 298 299 299 299 298 298 298 299 297 294 292 288 281 271 264 261 265 271 275 277 277 278 279 279 281 283 285 286 287 287 287 286 285 282 280 277 276 277 279 281 281 280 280 279 277 274 271